Regional Weather Roundup
Issued by NWS Sioux Falls, SD

Home | Current Version | Previous Version | Graphics & Text | Print | Product List | Glossary On
Versions: 1 2 3 4 5 6 7 8 9 10 11 12 13 14 15 16 17 18 19 20 21 22 23 24 25 26 27 28 29 30 31 32 33 34 35 36 37 38 39 40 41 42 43 44 45 46 47 48 49 50
000
ASUS43 KFSD 200210
RWRFSD

WEATHER ROUNDUP FOR SE SOUTH DAKOTA/SW MINNESOTA/NW IOWA
NATIONAL WEATHER SERVICE SIOUX FALLS SD
900 PM CDT THU OCT 19 2017

NOTE: "FAIR" INDICATES FEW OR NO CLOUDS BELOW 12,000 FEET WITH NO
SIGNIFICANT WEATHER AND OR OBSTRUCTIONS TO VISIBILITY.


SDZ038>040-050-052>070-200300-
SOUTHEAST SOUTH DAKOTA

CITY           SKY/WX    TMP DP  RH WIND       PRES   REMARKS
BROOKINGS      CLEAR     63  49  60 S15       29.86S
CHAMBERLAIN    CLEAR     66  47  50 SE9       29.79S
HURON          CLEAR     63  49  60 S15       29.79S
MADISON        FAIR      59  50  72 S13       29.87F
MITCHELL       CLEAR     65  49  56 S13       29.82S
SIOUX FALLS    CLEAR     67  52  58 S17       29.88F
WINNER         FAIR      70  46  42 S22G32    29.78F
YANKTON        CLEAR     63  51  65 SE9       29.88F
$$

MNZ071-072-080-081-089-090-097-098-200300-
SOUTHWEST MINNESOTA

CITY           SKY/WX    TMP DP  RH WIND       PRES   REMARKS
FAIRMONT       CLEAR     58  47  66 S13       29.95F
JACKSON        CLEAR     61  46  59 S13       29.95S
LUVERNE        CLEAR     55  45  67 S5        29.91F
MARSHALL       CLEAR     64  48  56 S17G25    29.85F
MONTEVIDEO     CLEAR     59  45  58 SW3       29.85S
PIPESTONE      CLEAR     63  46  55 S12G17    29.90S
REDWOOD FALLS  CLEAR     57  44  62 SE8       29.88F
TRACY          CLEAR     65  49  56 S14G21    29.87F
WORTHINGTON    CLEAR     61  49  64 S9        29.93F
$$

IAZ001>003-012>014-020>022-031-032-NEZ013-014-SDZ071-200300-
NORTHWEST IOWA

CITY           SKY/WX    TMP DP  RH WIND       PRES   REMARKS
CHEROKEE       CLEAR     58  52  80 S6        29.95F
DENISON        CLEAR     66  52  59 S14G20    29.98S
ESTHERVILLE    CLEAR     59  48  67 S10       29.95F
LE MARS        CLEAR     63  52  67 S8        29.92F
ORANGE CITY    CLEAR     63  54  72 S5        29.93F
SHELDON        CLEAR     63  50  63 S9        29.91F
SIOUX CITY     CLEAR     57  52  83 SE7       29.93F
SPENCER        CLEAR     56  49  77 S7        29.95F
STORM LAKE     CLEAR     61  52  72 S9        29.97S
$$

ABBREVIATIONS USED IN REMARKS
   TC - TEMPERATURE IN CELSIUS
  WCI - WIND CHILL INDEX
   HX - HEAT INDEX
  VSB - VISIBILITY





USA.gov is the U.S. government's official web portal to all federal, state and local government web resources and services.